| time (UTC) | temp F | wind direction | speed MPH | gust MPH | rain 1hr in | rain 24hr in | rain mn in | humidity % | barometer mb |
| 20260504050503 | 64 | 57 | 0.0 | 0.0 | 0.00 | 0.00 | 0.00 | 69 | 1018.6 |
| 20260504050012 | 64 | 57 | 0.0 | 0.0 | 0.00 | 0.00 | 0.00 | 67 | 1018.6 |
| 20260504045504 | 65 | 57 | 0.0 | 0.0 | 0.00 | 0.00 | 0.00 | 66 | 1018.6 |
| 20260504045003 | 65 | 57 | 0.0 | 0.0 | 0.00 | 0.00 | 0.00 | 66 | 1018.6 |
| 20260504044509 | 65 | 57 | 0.0 | 1.0 | 0.00 | 0.00 | 0.00 | 65 | 1018.6 |
| 20260504044003 | 66 | 55 | 0.0 | 1.0 | 0.00 | 0.00 | 0.00 | 64 | 1018.7 |
| 20260504043503 | 66 | 55 | 0.0 | 1.0 | 0.00 | 0.00 | 0.00 | 63 | 1018.8 |
| 20260504043008 | 66 | 57 | 0.0 | 2.0 | 0.00 | 0.00 | 0.00 | 62 | 1018.7 |
| 20260504042504 | 66 | 54 | 0.0 | 2.0 | 0.00 | 0.00 | 0.00 | 61 | 1018.7 |
| 20260504042004 | 67 | 74 | 0.0 | 3.0 | 0.00 | 0.00 | 0.00 | 62 | 1018.7 |
| 20260504041510 | 67 | 61 | 0.0 | 3.0 | 0.00 | 0.00 | 0.00 | 61 | 1018.7 |
| 20260504041007 | 67 | 71 | 1.0 | 2.0 | 0.00 | 0.00 | 0.00 | 61 | 1018.7 |
| 20260504040507 | 67 | 74 | 0.0 | 3.0 | 0.00 | 0.00 | 0.00 | 61 | 1018.7 |
| 20260504040008 | 67 | 76 | 0.0 | 3.0 | 0.00 | 0.00 | 0.00 | 61 | 1018.7 |
| 20260504035505 | 67 | 76 | 0.0 | 3.0 | 0.00 | 0.00 | 0.00 | 61 | 1018.6 |
| 20260504035004 | 67 | 63 | 0.0 | 3.0 | 0.00 | 0.00 | 0.00 | 60 | 1018.6 |
| 20260504034510 | 67 | 67 | 1.0 | 3.0 | 0.00 | 0.00 | 0.00 | 60 | 1018.6 |
| 20260504034007 | 68 | 49 | 1.0 | 4.0 | 0.00 | 0.00 | 0.00 | 59 | 1018.7 |
| 20260504033505 | 68 | 84 | 1.0 | 4.0 | 0.00 | 0.00 | 0.00 | 59 | 1018.8 |
| 20260504033011 | 68 | 81 | 0.0 | 4.0 | 0.00 | 0.00 | 0.00 | 59 | 1018.9 |
| 20260504032509 | 68 | 85 | 1.0 | 4.0 | 0.00 | 0.00 | 0.00 | 58 | 1018.9 |
| 20260504032008 | 68 | 73 | 1.0 | 3.0 | 0.00 | 0.00 | 0.00 | 58 | 1018.8 |
| 20260504031511 | 68 | 84 | 0.0 | 3.0 | 0.00 | 0.00 | 0.00 | 58 | 1018.8 |
| 20260504031004 | 68 | 64 | 0.0 | 2.0 | 0.00 | 0.00 | 0.00 | 59 | 1018.7 |
| 20260504030504 | 68 | 69 | 0.0 | 3.0 | 0.00 | 0.00 | 0.00 | 57 | 1018.7 |
| 20260504030009 | 69 | 71 | 0.0 | 3.0 | 0.00 | 0.00 | 0.00 | 56 | 1018.7 |
| 20260504025503 | 69 | 70 | 0.0 | 2.0 | 0.00 | 0.00 | 0.00 | 56 | 1018.6 |
| 20260504025007 | 69 | 66 | 0.0 | 2.0 | 0.00 | 0.00 | 0.00 | 56 | 1018.6 |
| 20260504024511 | 69 | 62 | 0.0 | 3.0 | 0.00 | 0.00 | 0.00 | 55 | 1018.5 |
| 20260504024007 | 69 | 80 | 0.0 | 4.0 | 0.00 | 0.00 | 0.00 | 55 | 1018.4 |
| 20260504023506 | 70 | 81 | 0.0 | 4.0 | 0.00 | 0.00 | 0.00 | 56 | 1018.4 |
| 20260504023013 | 70 | 76 | 1.0 | 3.0 | 0.00 | 0.00 | 0.00 | 55 | 1018.3 |
| 20260504022509 | 70 | 78 | 1.0 | 4.0 | 0.00 | 0.00 | 0.00 | 53 | 1018.3 |
| 20260504022007 | 70 | 69 | 2.0 | 4.0 | 0.00 | 0.00 | 0.00 | 53 | 1018.4 |
| 20260504021516 | 71 | 91 | 2.0 | 5.0 | 0.00 | 0.00 | 0.00 | 53 | 1018.5 |
| 20260504021006 | 71 | 65 | 2.0 | 5.0 | 0.00 | 0.00 | 0.00 | 51 | 1018.4 |
| 20260504020508 | 71 | 72 | 2.0 | 5.0 | 0.00 | 0.00 | 0.00 | 52 | 1018.4 |
| 20260504020010 | 71 | 69 | 1.0 | 5.0 | 0.00 | 0.00 | 0.00 | 51 | 1018.3 |
| 20260504015506 | 71 | 73 | 1.0 | 3.0 | 0.00 | 0.00 | 0.00 | 52 | 1018.2 |
| 20260504015007 | 71 | 73 | 1.0 | 3.0 | 0.00 | 0.00 | 0.00 | 51 | 1018.2 |
| 20260504014514 | 71 | 91 | 0.0 | 4.0 | 0.00 | 0.00 | 0.00 | 52 | 1018.2 |
| 20260504014007 | 72 | 83 | 1.0 | 4.0 | 0.00 | 0.00 | 0.00 | 50 | 1018.1 |
| 20260504013506 | 72 | 68 | 1.0 | 4.0 | 0.00 | 0.00 | 0.00 | 51 | 1018.1 |
| 20260504013017 | 72 | 74 | 2.0 | 4.0 | 0.00 | 0.00 | 0.00 | 49 | 1018.0 |
| 20260504012504 | 72 | 69 | 2.0 | 4.0 | 0.00 | 0.00 | 0.00 | 49 | 1018.0 |
| 20260504012004 | 73 | 69 | 1.0 | 4.0 | 0.00 | 0.00 | 0.00 | 49 | 1018.0 |
| 20260504011504 | 73 | 42 | 2.0 | 6.0 | 0.00 | 0.00 | 0.00 | 48 | 1017.9 |
| 20260504011004 | 73 | 67 | 3.0 | 6.0 | 0.00 | 0.00 | 0.00 | 48 | 1017.7 |
| 20260504010503 | 73 | 74 | 2.0 | 6.0 | 0.00 | 0.00 | 0.00 | 48 | 1017.9 |
| 20260504010012 | 74 | 99 | 1.0 | 6.0 | 0.00 | 0.00 | 0.00 | 48 | 1017.9 |
| 20260504005504 | 74 | 76 | 2.0 | 5.0 | 0.00 | 0.00 | 0.00 | 47 | 1017.8 |
| 20260504005008 | 74 | 277 | 1.0 | 3.0 | 0.00 | 0.00 | 0.00 | 47 | 1017.8 |
| 20260504004515 | 74 | 277 | 1.0 | 3.0 | 0.00 | 0.00 | 0.00 | 46 | 1017.8 |
| 20260504004003 | 75 | 69 | 0.0 | 2.0 | 0.00 | 0.00 | 0.00 | 45 | 1017.8 |
| 20260504003506 | 75 | 71 | 0.0 | 3.0 | 0.00 | 0.00 | 0.00 | 44 | 1017.9 |
| 20260504003013 | 75 | 69 | 1.0 | 3.0 | 0.00 | 0.00 | 0.00 | 43 | 1017.9 |
| 20260504002503 | 75 | 72 | 1.0 | 3.0 | 0.00 | 0.00 | 0.00 | 43 | 1017.9 |
| 20260504002004 | 75 | 76 | 1.0 | 5.0 | 0.00 | 0.00 | 0.00 | 43 | 1017.9 |
| 20260504001508 | 75 | 61 | 1.0 | 5.0 | 0.00 | 0.00 | 0.00 | 42 | 1017.8 |
| 20260504001004 | 76 | 85 | 2.0 | 4.0 | 0.00 | 0.00 | 0.00 | 43 | 1018.0 |
| 20260504000503 | 76 | 15 | 2.0 | 4.0 | 0.00 | 0.00 | 0.00 | 41 | 1017.9 |
| 20260504000042 | 76 | 83 | 2.0 | 4.0 | 0.00 | 0.00 | 0.00 | 38 | 1017.9 |
| 20260503235509 | 77 | 74 | 1.0 | 3.0 | 0.00 | 0.00 | 0.00 | 37 | 1018.0 |
| 20260503235004 | 77 | 82 | 0.0 | 4.0 | 0.00 | 0.00 | 0.00 | 37 | 1018.0 |
| 20260503234516 | 77 | 94 | 1.0 | 4.0 | 0.00 | 0.00 | 0.00 | 36 | 1018.1 |
| 20260503234007 | 77 | 77 | 1.0 | 4.0 | 0.00 | 0.00 | 0.00 | 36 | 1018.0 |
| 20260503233510 | 78 | 78 | 1.0 | 4.0 | 0.00 | 0.00 | 0.00 | 35 | 1017.9 |
| 20260503233016 | 78 | 71 | 0.0 | 5.0 | 0.00 | 0.00 | 0.00 | 34 | 1018.1 |
| 20260503232504 | 77 | 82 | 1.0 | 5.0 | 0.00 | 0.00 | 0.00 | 36 | 1018.1 |
| 20260503232004 | 78 | 66 | 1.0 | 4.0 | 0.00 | 0.00 | 0.00 | 35 | 1018.1 |
| 20260503231509 | 78 | 86 | 1.0 | 3.0 | 0.00 | 0.00 | 0.00 | 38 | 1018.2 |
| 20260503231007 | 79 | 51 | 0.0 | 4.0 | 0.00 | 0.00 | 0.00 | 35 | 1018.2 |
| 20260503230507 | 78 | 81 | 1.0 | 6.0 | 0.00 | 0.00 | 0.00 | 36 | 1018.2 |
| 20260503230018 | 79 | 78 | 2.0 | 6.0 | 0.00 | 0.00 | 0.00 | 38 | 1018.1 |
| 20260503225508 | 79 | 70 | 2.0 | 6.0 | 0.00 | 0.00 | 0.00 | 34 | 1018.1 |
| 20260503225009 | 79 | 82 | 0.0 | 6.0 | 0.00 | 0.00 | 0.00 | 38 | 1018.2 |
| 20260503224519 | 79 | 90 | 0.0 | 6.0 | 0.00 | 0.00 | 0.00 | 36 | 1018.3 |
| 20260503224009 | 79 | 74 | 1.0 | 5.0 | 0.00 | 0.00 | 0.00 | 38 | 1018.4 |
| 20260503223507 | 79 | 55 | 1.0 | 4.0 | 0.00 | 0.00 | 0.00 | 39 | 1018.4 |
| 20260503223008 | 78 | 63 | 2.0 | 4.0 | 0.00 | 0.00 | 0.00 | 37 | 1018.4 |
| 20260503222503 | 78 | 71 | 1.0 | 3.0 | 0.00 | 0.00 | 0.00 | 37 | 1018.5 |
| 20260503222006 | 79 | 283 | 1.0 | 3.0 | 0.00 | 0.00 | 0.00 | 36 | 1018.5 |
| 20260503221512 | 79 | 282 | 0.0 | 3.0 | 0.00 | 0.00 | 0.00 | 40 | 1018.6 |
| 20260503221007 | 79 | 282 | 1.0 | 3.0 | 0.00 | 0.00 | 0.00 | 38 | 1018.7 |
| 20260503220506 | 80 | 282 | 1.0 | 3.0 | 0.00 | 0.00 | 0.00 | 35 | 1018.8 |
| 20260503220020 | 80 | 86 | 0.0 | 5.0 | 0.00 | 0.00 | 0.00 | 35 | 1018.7 |
| 20260503215506 | 79 | 84 | 0.0 | 5.0 | 0.00 | 0.00 | 0.00 | 34 | 1018.7 |
| 20260503215013 | 79 | 93 | 1.0 | 6.0 | 0.00 | 0.00 | 0.00 | 36 | 1018.7 |
| 20260503214523 | 79 | 85 | 2.0 | 8.0 | 0.00 | 0.00 | 0.00 | 35 | 1018.7 |
| 20260503214010 | 80 | 80 | 3.0 | 9.0 | 0.00 | 0.00 | 0.00 | 40 | 1018.7 |
| 20260503213509 | 80 | 78 | 2.0 | 9.0 | 0.00 | 0.00 | 0.00 | 37 | 1018.8 |
| 20260503213010 | 80 | 62 | 2.0 | 7.0 | 0.00 | 0.00 | 0.00 | 33 | 1019.0 |
| 20260503212506 | 80 | 69 | 3.0 | 7.0 | 0.00 | 0.00 | 0.00 | 35 | 1019.2 |
| 20260503212005 | 80 | 92 | 1.0 | 5.0 | 0.00 | 0.00 | 0.00 | 35 | 1019.2 |
| 20260503211517 | 80 | 39 | 1.0 | 4.0 | 0.00 | 0.00 | 0.00 | 39 | 1019.3 |
| 20260503211006 | 80 | 71 | 1.0 | 6.0 | 0.00 | 0.00 | 0.00 | 39 | 1019.3 |
| 20260503210505 | 80 | 84 | 1.0 | 6.0 | 0.00 | 0.00 | 0.00 | 40 | 1019.4 |
| 20260503210019 | 80 | 82 | 1.0 | 6.0 | 0.00 | 0.00 | 0.00 | 37 | 1019.4 |
| 20260503205508 | 80 | 90 | 1.0 | 6.0 | 0.00 | 0.00 | 0.00 | 42 | 1019.4 |
| 20260503205008 | 79 | 86 | 0.0 | 6.0 | 0.00 | 0.00 | 0.00 | 36 | 1019.4 |
| 20260503204519 | 79 | 94 | 3.0 | 6.0 | 0.00 | 0.00 | 0.00 | 37 | 1019.5 |
| 20260503204009 | 80 | 68 | 2.0 | 6.0 | 0.00 | 0.00 | 0.00 | 37 | 1019.6 |
| 20260503203511 | 79 | 83 | 1.0 | 6.0 | 0.00 | 0.00 | 0.00 | 38 | 1019.8 |
| 20260503203019 | 79 | 66 | 2.0 | 6.0 | 0.00 | 0.00 | 0.00 | 40 | 1019.9 |
| 20260503202508 | 79 | 94 | 2.0 | 6.0 | 0.00 | 0.00 | 0.00 | 37 | 1020.0 |
| 20260503202006 | 78 | 87 | 0.0 | 4.0 | 0.00 | 0.00 | 0.00 | 37 | 1020.1 |
| 20260503201517 | 78 | 86 | 0.0 | 4.0 | 0.00 | 0.00 | 0.00 | 37 | 1020.1 |
| 20260503201006 | 78 | 111 | 0.0 | 4.0 | 0.00 | 0.00 | 0.00 | 36 | 1020.2 |
| 20260503200507 | 80 | 80 | 0.0 | 9.0 | 0.00 | 0.00 | 0.00 | 38 | 1020.3 |
| 20260503200024 | 79 | 83 | 2.0 | 9.0 | 0.00 | 0.00 | 0.00 | 37 | 1020.5 |
| 20260503195508 | 78 | 93 | 0.0 | 4.0 | 0.00 | 0.00 | 0.00 | 35 | 1020.7 |
| 20260503195009 | 78 | 88 | 0.0 | 8.0 | 0.00 | 0.00 | 0.00 | 38 | 1020.7 |
| 20260503194523 | 79 | 91 | 0.0 | 8.0 | 0.00 | 0.00 | 0.00 | 39 | 1020.8 |
| 20260503194009 | 80 | 84 | 1.0 | 5.0 | 0.00 | 0.00 | 0.00 | 39 | 1020.8 |
| 20260503193506 | 79 | 82 | 1.0 | 5.0 | 0.00 | 0.00 | 0.00 | 41 | 1020.8 |
| 20260503193012 | 79 | 69 | 2.0 | 4.0 | 0.00 | 0.00 | 0.00 | 38 | 1021.0 |
| 20260503192507 | 79 | 283 | 0.0 | 4.0 | 0.00 | 0.00 | 0.00 | 34 | 1021.0 |
| 20260503192006 | 79 | 69 | 1.0 | 6.0 | 0.00 | 0.00 | 0.00 | 40 | 1021.1 |
| 20260503191520 | 78 | 80 | 1.0 | 6.0 | 0.00 | 0.00 | 0.00 | 41 | 1021.3 |
| 20260503191010 | 78 | 95 | 2.0 | 4.0 | 0.00 | 0.00 | 0.00 | 40 | 1021.4 |
| 20260503190515 | 78 | 95 | 0.0 | 3.0 | 0.00 | 0.00 | 0.00 | 44 | 1021.5 |
| 20260503190026 | 78 | 284 | 0.0 | 6.0 | 0.00 | 0.00 | 0.00 | 35 | 1021.5 |
| 20260503185507 | 78 | 284 | 0.0 | 7.0 | 0.00 | 0.00 | 0.00 | 39 | 1021.6 |
| 20260503185011 | 78 | 74 | 3.0 | 7.0 | 0.00 | 0.00 | 0.00 | 39 | 1021.6 |
| 20260503184523 | 79 | 90 | 4.0 | 7.0 | 0.00 | 0.00 | 0.00 | 38 | 1021.7 |
| 20260503184012 | 79 | 81 | 2.0 | 4.0 | 0.00 | 0.00 | 0.00 | 42 | 1021.8 |
| 20260503183507 | 78 | 84 | 0.0 | 2.0 | 0.00 | 0.00 | 0.00 | 40 | 1021.8 |
| 20260503183018 | 77 | 91 | 0.0 | 5.0 | 0.00 | 0.00 | 0.00 | 39 | 1021.9 |
| 20260503182513 | 77 | 86 | 1.0 | 7.0 | 0.00 | 0.00 | 0.00 | 38 | 1022.1 |
| 20260503182009 | 78 | 94 | 3.0 | 7.0 | 0.00 | 0.00 | 0.00 | 43 | 1022.2 |
| 20260503181523 | 78 | 98 | 2.0 | 6.0 | 0.00 | 0.00 | 0.00 | 40 | 1022.2 |
| 20260503181010 | 77 | 88 | 2.0 | 6.0 | 0.00 | 0.00 | 0.00 | 39 | 1022.3 |
| 20260503180508 | 78 | 76 | 0.0 | 3.0 | 0.00 | 0.00 | 0.00 | 41 | 1022.4 |
| 20260503180030 | 77 | 286 | 0.0 | 4.0 | 0.00 | 0.00 | 0.00 | 41 | 1022.5 |
| 20260503175507 | 77 | 75 | 2.0 | 4.0 | 0.00 | 0.00 | 0.00 | 41 | 1022.6 |
| 20260503175007 | 77 | 84 | 1.0 | 6.0 | 0.00 | 0.00 | 0.00 | 43 | 1022.7 |
| 20260503174526 | 77 | 78 | 0.0 | 6.0 | 0.00 | 0.00 | 0.00 | 41 | 1022.7 |
| 20260503174010 | 78 | 95 | 0.0 | 4.0 | 0.00 | 0.00 | 0.00 | 42 | 1022.9 |
| 20260503173507 | 78 | 63 | 0.0 | 4.0 | 0.00 | 0.00 | 0.00 | 44 | 1022.9 |
| 20260503173036 | 77 | 83 | 1.0 | 3.0 | 0.00 | 0.00 | 0.00 | 44 | 1023.0 |
| 20260503172509 | 77 | 83 | 1.0 | 6.0 | 0.00 | 0.00 | 0.00 | 44 | 1023.1 |
| 20260503172011 | 77 | 70 | 1.0 | 6.0 | 0.00 | 0.00 | 0.00 | 45 | 1023.2 |
| 20260503171534 | 76 | 80 | 0.0 | 6.0 | 0.00 | 0.00 | 0.00 | 38 | 1023.2 |
| 20260503171009 | 77 | 83 | 2.0 | 6.0 | 0.00 | 0.00 | 0.00 | 40 | 1023.3 |
| 20260503170509 | 78 | 87 | 1.0 | 4.0 | 0.00 | 0.00 | 0.00 | 42 | 1023.4 |
| 20260503131005 | 63 | 267 | 0.0 | 0.0 | 0.00 | 0.01 | 0.00 | 89 | 1022.7 |
| 20260503130505 | 61 | 267 | 0.0 | 0.0 | 0.00 | 0.01 | 0.00 | 91 | 1022.6 |
| 20260503110507 | 55 | 279 | 0.0 | 0.0 | 0.00 | 0.01 | 0.00 | 94 | 1021.7 |
| 20260503090506 | 57 | 279 | 0.0 | 0.0 | 0.00 | 0.01 | 0.00 | 93 | 1021.1 |
| 20260503081522 | 57 | 279 | 0.0 | 0.0 | 0.00 | 0.01 | 0.00 | 92 | 1021.3 |
| 20260503081006 | 57 | 279 | 0.0 | 0.0 | 0.00 | 0.01 | 0.00 | 92 | 1021.3 |
| 20260503080507 | 56 | 279 | 0.0 | 0.0 | 0.00 | 0.01 | 0.00 | 91 | 1021.4 |
| 20260503072510 | 57 | 279 | 0.0 | 0.0 | 0.00 | 0.01 | 0.00 | 90 | 1021.4 |
| 20260503072008 | 57 | 279 | 0.0 | 0.0 | 0.00 | 0.01 | 0.00 | 90 | 1021.4 |
| 20260503071518 | 57 | 279 | 0.0 | 0.0 | 0.00 | 0.01 | 0.00 | 90 | 1021.3 |
| 20260503071011 | 58 | 279 | 0.0 | 0.0 | 0.00 | 0.01 | 0.00 | 90 | 1021.4 |
| 20260503070511 | 58 | 279 | 0.0 | 0.0 | 0.00 | 0.01 | 0.00 | 90 | 1021.4 |
| 20260503055011 | 59 | 279 | 0.0 | 0.0 | 0.00 | 0.01 | 0.00 | 88 | 1021.4 |